TimeCST,TemperatureF,Dew PointF,Humidity,Sea Level PressureIn,VisibilityMPH,Wind Direction,Wind SpeedMPH,Gust SpeedMPH,PrecipitationIn,Events,Conditions,WindDirDegrees,DateUTC
12:15 AM,44.6,35.6,71,29.68,10.0,South,6.9,-,N/A,,Clear,190,2011-11-14 06:15:00
12:35 AM,44.6,35.6,71,29.67,10.0,South,5.8,-,N/A,,Clear,180,2011-11-14 06:35:00
12:55 AM,42.8,33.8,70,29.68,10.0,SSW,3.5,-,N/A,,Clear,200,2011-11-14 06:55:00
1:15 AM,44.6,33.8,66,29.67,10.0,SW,4.6,-,N/A,,Clear,230,2011-11-14 07:15:00
1:35 AM,46.4,33.8,62,29.68,10.0,WSW,8.1,-,N/A,,Clear,250,2011-11-14 07:35:00
1:55 AM,46.4,33.8,62,29.67,10.0,West,5.8,-,N/A,,Clear,280,2011-11-14 07:55:00
2:15 AM,44.6,33.8,66,29.67,10.0,West,6.9,-,N/A,,Clear,280,2011-11-14 08:15:00
2:35 AM,42.8,33.8,70,29.68,10.0,West,5.8,-,N/A,,Clear,270,2011-11-14 08:35:00
2:55 AM,42.8,33.8,70,29.66,10.0,West,3.5,-,N/A,,Clear,270,2011-11-14 08:55:00
3:15 AM,42.8,33.8,70,29.67,10.0,Calm,Calm,-,N/A,,Clear,0,2011-11-14 09:15:00
3:35 AM,41.0,35.6,81,29.67,10.0,West,3.5,-,N/A,,Scattered Clouds,280,2011-11-14 09:35:00
3:55 AM,42.8,35.6,76,29.66,10.0,WNW,3.5,-,N/A,,Mostly Cloudy,300,2011-11-14 09:55:00
4:15 AM,44.6,35.6,71,29.67,10.0,WNW,3.5,-,N/A,,Overcast,300,2011-11-14 10:15:00
4:35 AM,44.6,35.6,71,29.67,10.0,Calm,Calm,-,N/A,,Overcast,0,2011-11-14 10:35:00
4:55 AM,44.6,37.4,76,29.66,10.0,Calm,Calm,-,N/A,,Overcast,0,2011-11-14 10:55:00
5:15 AM,44.6,35.6,71,29.66,10.0,NNW,4.6,-,N/A,,Mostly Cloudy,340,2011-11-14 11:15:00
5:35 AM,44.6,35.6,71,29.64,10.0,North,4.6,-,N/A,,Scattered Clouds,360,2011-11-14 11:35:00
5:55 AM,42.8,35.6,76,29.65,10.0,ENE,3.5,-,N/A,,Clear,70,2011-11-14 11:55:00
6:15 AM,41.0,33.8,76,29.64,10.0,East,5.8,-,N/A,,Clear,100,2011-11-14 12:15:00
6:35 AM,42.8,35.6,76,29.65,10.0,SE,3.5,-,N/A,,Mostly Cloudy,130,2011-11-14 12:35:00
6:55 AM,42.8,35.6,76,29.65,10.0,ESE,5.8,-,N/A,,Overcast,110,2011-11-14 12:55:00
7:15 AM,42.8,37.4,81,29.64,10.0,ESE,4.6,-,N/A,,Overcast,110,2011-11-14 13:15:00
7:35 AM,44.6,37.4,76,29.64,10.0,ESE,5.8,-,N/A,Rain,Light Rain,110,2011-11-14 13:35:00
7:55 AM,44.6,37.4,76,29.63,10.0,East,4.6,-,N/A,,Overcast,90,2011-11-14 13:55:00
8:15 AM,46.4,37.4,71,29.62,10.0,ESE,6.9,-,N/A,,Mostly Cloudy,120,2011-11-14 14:15:00
8:35 AM,46.4,37.4,71,29.61,10.0,ESE,8.1,-,N/A,,Mostly Cloudy,110,2011-11-14 14:35:00
8:55 AM,46.4,39.2,76,29.61,7.0,ESE,9.2,-,0.01,Rain-Thunderstorm,Light Thunderstorms and Rain,110,2011-11-14 14:55:00
9:15 AM,46.4,41.0,81,29.60,10.0,SE,10.4,-,N/A,Rain,Light Rain,130,2011-11-14 15:15:00
9:35 AM,44.6,41.0,87,29.59,7.0,ESE,11.5,-,0.03,Rain,Rain,110,2011-11-14 15:35:00
9:55 AM,44.6,41.0,87,29.59,10.0,ENE,4.6,-,0.04,Rain-Thunderstorm,Light Thunderstorms and Rain,70,2011-11-14 15:55:00
10:15 AM,46.4,42.8,87,29.57,10.0,ENE,5.8,-,N/A,,Overcast,60,2011-11-14 16:15:00
10:35 AM,46.4,42.8,87,29.57,10.0,NE,6.9,-,N/A,,Overcast,50,2011-11-14 16:35:00
10:55 AM,46.4,42.8,87,29.57,10.0,NNE,4.6,-,0.01,Rain,Light Rain,20,2011-11-14 16:55:00
11:15 AM,44.6,42.8,93,29.59,0.5,North,17.3,25.3,0.36,Rain-Thunderstorm,Light Thunderstorms and Rain,10,2011-11-14 17:15:00
11:35 AM,46.4,42.8,87,29.58,7.0,NNE,6.9,-,0.41,Rain,Light Rain,30,2011-11-14 17:35:00
11:55 AM,46.4,42.8,87,29.57,10.0,North,9.2,-,0.42,,Overcast,10,2011-11-14 17:55:00
12:15 PM,46.4,44.6,93,29.55,10.0,North,9.2,-,N/A,,Overcast,10,2011-11-14 18:15:00
12:35 PM,46.4,44.6,93,29.56,10.0,NNE,6.9,-,N/A,,Overcast,30,2011-11-14 18:35:00
12:55 PM,46.4,44.6,93,29.55,10.0,NNE,8.1,-,N/A,,Overcast,30,2011-11-14 18:55:00
1:15 PM,46.4,44.6,93,29.56,10.0,North,5.8,-,N/A,,Overcast,360,2011-11-14 19:15:00
1:35 PM,48.2,44.6,87,29.55,10.0,NE,4.6,-,N/A,,Overcast,40,2011-11-14 19:35:00
1:55 PM,50.0,46.4,87,29.56,10.0,North,4.6,-,N/A,,Mostly Cloudy,350,2011-11-14 19:55:00
2:15 PM,50.0,44.6,82,29.56,10.0,North,5.8,-,N/A,,Scattered Clouds,360,2011-11-14 20:15:00
2:35 PM,50.0,44.6,82,29.57,10.0,North,5.8,-,N/A,,Clear,10,2011-11-14 20:35:00
2:55 PM,51.8,44.6,76,29.60,10.0,North,5.8,-,N/A,,Scattered Clouds,350,2011-11-14 20:55:00
3:15 PM,51.8,44.6,76,29.62,10.0,Calm,Calm,-,N/A,,Mostly Cloudy,0,2011-11-14 21:15:00
3:35 PM,51.8,44.6,76,29.62,10.0,Calm,Calm,-,N/A,,Scattered Clouds,0,2011-11-14 21:35:00
3:55 PM,50.0,44.6,82,29.62,10.0,Calm,Calm,-,N/A,,Clear,0,2011-11-14 21:55:00
4:15 PM,50.0,44.6,82,29.63,10.0,Calm,Calm,-,N/A,,Scattered Clouds,0,2011-11-14 22:15:00
4:35 PM,48.2,44.6,87,29.64,10.0,Calm,Calm,-,N/A,,Scattered Clouds,0,2011-11-14 22:35:00
4:55 PM,46.4,44.6,93,29.65,10.0,Calm,Calm,-,N/A,,Clear,0,2011-11-14 22:55:00
5:15 PM,46.4,42.8,87,29.66,7.0,SSE,3.5,-,N/A,,Clear,160,2011-11-14 23:15:00
5:35 PM,44.6,42.8,93,29.66,7.0,Calm,Calm,-,N/A,,Clear,0,2011-11-14 23:35:00
5:55 PM,42.8,41.0,93,29.66,3.0,Calm,Calm,-,N/A,,Clear,0,2011-11-14 23:55:00
6:15 PM,44.6,42.8,93,29.67,5.0,Calm,Calm,-,N/A,,Clear,0,2011-11-15 00:15:00
6:35 PM,44.6,42.8,93,29.68,7.0,SSE,3.5,-,N/A,,Clear,150,2011-11-15 00:35:00
6:55 PM,42.8,42.8,100,29.68,7.0,SSE,3.5,-,N/A,,Clear,150,2011-11-15 00:55:00
7:15 PM,44.6,42.8,93,29.69,7.0,South,4.6,-,N/A,,Clear,190,2011-11-15 01:15:00
7:35 PM,42.8,41.0,93,29.69,7.0,SSE,3.5,-,N/A,,Clear,160,2011-11-15 01:35:00
7:55 PM,42.8,42.8,100,29.69,7.0,South,5.8,-,N/A,,Clear,170,2011-11-15 01:55:00
8:15 PM,44.6,42.8,93,29.69,7.0,South,3.5,-,N/A,,Clear,170,2011-11-15 02:15:00
8:35 PM,44.6,42.8,93,29.70,7.0,SSW,3.5,-,N/A,,Clear,200,2011-11-15 02:35:00
8:55 PM,42.8,42.8,100,29.71,7.0,Calm,Calm,-,N/A,,Clear,0,2011-11-15 02:55:00
9:15 PM,42.8,42.8,100,29.71,7.0,SSW,3.5,-,N/A,,Clear,200,2011-11-15 03:15:00
9:35 PM,44.6,42.8,93,29.73,7.0,South,4.6,-,N/A,,Clear,190,2011-11-15 03:35:00
9:55 PM,44.6,42.8,93,29.73,7.0,South,5.8,-,N/A,,Clear,190,2011-11-15 03:55:00
10:15 PM,44.6,42.8,93,29.74,7.0,South,4.6,-,N/A,,Clear,180,2011-11-15 04:15:00
10:35 PM,44.6,42.8,93,29.74,7.0,South,4.6,-,N/A,,Clear,190,2011-11-15 04:35:00
10:55 PM,46.4,42.8,87,29.75,10.0,SSW,8.1,-,N/A,,Clear,200,2011-11-15 04:55:00
11:15 PM,46.4,42.8,87,29.76,10.0,SSW,8.1,-,N/A,,Clear,210,2011-11-15 05:15:00
11:35 PM,46.4,42.8,87,29.76,10.0,SW,5.8,-,N/A,,Clear,220,2011-11-15 05:35:00
11:55 PM,44.6,42.8,93,29.76,10.0,SW,5.8,-,N/A,,Clear,220,2011-11-15 05:55:00